Lapse_Rate
5.0 6.7 6.5 5.6 6.2 5.6 5.6 5.7 6.7 7.8 7.3 8.4 8.5 8.3 8.3 7.2 6.4 5.6 5.1 6.1 6.8 7.1 7.6 5.8 5.2 5.2 4.9 4.8 4.7 4.7 4.5 4.6 4.6 4.5 4.5 4.6 4.9 5.2 5.3 5.2 5.1 4.9 5.0
4.8 5.9 6.6 6.4 7.0 6.3 6.8 6.9 7.9 7.6 7.5 8.3 7.8 8.5 8.6 7.7 6.9 6.0 5.0 5.5 5.9 6.3 6.4 6.1 5.6 5.3 5.0 4.8 4.8 4.9 4.8 4.9 5.5 5.6 5.4 5.4 5.5 5.4 5.3 5.4 5.1 5.2 5.3
4.7 6.0 6.2 6.3 7.4 7.4 7.5 7.6 8.1 8.5 6.9 8.4 7.5 8.2 8.5 8.8 7.5 6.6 5.5 4.8 5.1 6.2 6.5 6.9 6.4 5.9 5.8 5.7 4.9 5.2 5.6 5.6 5.8 6.0 5.9 5.8 5.7 5.6 5.8 5.7 5.6 5.4 5.3
5.3 6.0 7.0 7.1 8.2 7.8 7.7 7.3 6.5 6.6 6.4 6.4 6.5 6.7 7.4 8.6 8.5 7.2 6.7 5.6 5.2 5.4 5.7 6.5 6.6 6.4 6.4 6.2 5.5 5.5 5.9 6.1 6.1 6.0 6.1 6.1 6.1 5.9 6.0 5.8 5.8 5.7 5.9
6.4 7.3 5.1 6.7 7.7 7.4 6.4 7.0 6.4 6.3 6.2 6.4 6.5 6.2 6.1 6.4 7.6 8.9 7.8 6.9 6.1 6.2 5.4 5.5 5.8 6.2 6.1 6.0 6.7 6.6 6.9 5.9 6.2 6.0 6.1 6.0 6.0 6.1 6.2 6.1 6.2 6.0 6.2
7.5 7.5 6.8 6.8 7.5 6.8 6.2 6.1 6.6 6.6 6.5 6.2 8.8 7.3 6.2 5.9 6.8 6.3 7.2 8.7 7.7 7.8 6.6 6.2 5.5 5.2 5.5 5.6 6.4 7.3 8.0 7.6 7.0 6.6 6.8 7.0 6.9 6.7 6.5 6.5 6.4 6.4 6.6
8.5 7.4 6.3 6.0 6.4 6.2 6.3 6.5 6.4 6.7 6.5 6.4 5.8 5.5 6.3 6.6 6.1 5.7 7.1 6.7 7.2 7.6 8.0 7.6 5.7 5.5 4.9 5.2 5.4 6.4 7.6 8.4 8.1 7.8 7.6 6.9 7.2 6.8 7.0 6.9 6.8 6.8 7.0
7.6 7.1 6.3 5.9 6.1 6.1 6.2 6.3 6.2 5.7 6.2 5.8 5.7 5.4 6.1 6.3 5.8 5.9 5.5 5.6 4.8 6.7 6.8 7.6 6.6 5.7 6.3 5.3 5.3 5.6 6.4 7.3 8.2 7.8 7.4 7.4 7.4 7.3 7.1 7.1 7.3 7.3 7.5
7.9 7.6 6.8 5.9 5.6 5.6 6.1 6.0 5.7 6.1 5.4 5.7 5.9 5.2 5.9 5.8 4.9 5.1 5.5 5.3 5.3 4.7 6.1 6.4 6.9 7.4 7.3 7.0 6.0 5.1 5.5 6.4 7.1 7.4 7.4 7.1 7.0 6.9 7.0 7.3 7.5 7.7 7.8
6.9 7.6 7.6 6.5 5.2 5.9 5.6 5.1 5.1 5.6 5.3 5.0 5.6 5.6 5.4 5.5 5.6 5.5 4.7 5.5 5.5 5.8 4.9 5.9 6.7 6.5 7.0 7.0 6.6 5.7 5.6 6.3 6.2 6.5 7.1 7.4 7.7 7.7 7.5 7.5 7.3 7.4 7.7
6.7 7.9 7.4 6.3 5.2 5.0 5.0 4.3 4.6 5.3 5.3 5.1 4.9 4.9 5.6 5.1 5.0 5.0 4.9 4.8 5.1 5.3 4.2 4.3 5.8 5.8 5.6 5.1 5.4 6.2 6.6 7.1 6.6 6.1 6.5 6.9 7.1 7.2 7.4 7.6 7.9 8.1 7.9
5.9 6.2 6.7 6.0 4.5 4.9 4.7 4.5 5.1 6.0 4.1 5.0 5.1 5.3 4.9 5.6 5.2 4.4 4.3 4.5 4.4 4.7 4.2 4.1 4.4 3.7 3.5 3.6 4.7 5.4 6.7 6.8 6.5 6.1 5.7 5.8 5.9 6.3 6.6 7.0 7.3 7.7 8.2
6.3 6.3 6.2 5.1 5.1 4.8 4.4 4.5 4.2 5.3 4.7 4.2 4.3 4.6 5.8 4.6 5.7 5.0 5.1 4.7 4.3 3.5 3.3 2.8 2.9 2.7 3.9 3.4 3.9 4.9 5.6 5.3 5.5 5.4 5.1 5.0 4.9 5.1 5.6 6.2 6.4 6.6 7.0
6.1 6.1 5.8 5.5 5.0 4.9 5.2 4.9 4.7 4.9 4.1 4.3 4.2 4.4 6.5 5.8 4.8 5.4 5.5 4.6 4.6 4.1 3.5 3.9 2.4 3.6 3.1 4.6 4.0 4.5 4.5 4.8 4.5 4.1 3.8 3.8 3.9 4.1 4.4 4.7 5.2 5.6 6.0
6.0 5.5 5.7 5.1 5.1 5.5 5.5 5.0 4.8 5.1 5.0 5.0 5.2 4.5 5.6 5.6 4.5 4.8 4.8 5.2 5.7 6.2 6.5 5.6 4.9 3.8 3.7 4.7 4.2 3.9 4.5 2.7 3.6 3.3 3.0 3.1 3.2 3.4 3.7 4.1 4.3 4.5 4.9
6.5 5.5 6.0 5.6 5.6 5.7 5.3 5.3 5.8 6.1 5.9 6.0 6.1 5.6 5.8 5.7 5.2 4.9 4.9 4.7 4.4 5.1 6.3 5.8 5.4 5.3 5.3 5.9 6.0 3.5 3.4 4.3 3.6 3.0 2.5 2.5 2.9 3.4 3.4 3.4 3.7 3.8 4.1
7.4 7.5 6.1 5.6 5.4 5.6 5.8 6.0 6.2 6.1 6.4 6.7 6.5 6.2 6.1 5.3 5.1 5.0 4.8 4.9 4.7 4.6 5.7 6.0 3.8 3.1 3.4 3.7 1.1 2.7 3.4 3.2 1.9 2.4 2.5 3.0 3.2 3.1 2.8 3.1 3.0 2.8 2.8
7.2 7.2 7.3 6.3 6.1 6.3 6.0 5.7 5.8 6.5 6.4 6.4 6.9 6.4 6.3 6.1 6.0 5.8 5.1 4.7 4.8 4.2 4.4 5.3 5.1 3.1 3.4 3.7 2.3 3.1 4.4 4.7 3.8 3.3 3.8 4.3 3.9 3.1 2.7 2.8 2.5 2.5 2.4
7.5 7.5 7.1 7.1 6.7 6.3 6.1 5.8 6.0 6.2 6.4 7.1 6.9 6.9 6.9 6.6 6.3 6.2 5.7 4.8 4.3 3.8 4.0 4.4 4.9 2.4 2.4 1.2 1.9 2.3 2.3 2.8 5.2 5.9 5.9 4.4 4.0 3.1 3.5 3.3 3.2 2.7 2.5
8.3 8.2 7.7 7.4 7.2 6.6 6.8 6.8 6.9 6.6 6.8 7.1 7.3 7.0 6.8 6.7 6.7 5.7 5.1 4.6 4.1 4.0 3.8 4.9 5.1 1.1 1.9 0.4 2.4 2.2 1.8 2.2 4.1 5.7 5.6 5.7 5.4 5.0 5.0 4.6 4.2 3.8 3.1
8.3 8.3 8.1 8.0 7.9 8.0 8.4 7.8 8.1 7.8 7.6 7.7 7.4 7.2 7.1 6.4 4.3 4.6 4.6 4.1 3.9 4.3 4.9 5.2 5.1 0.4 0.8 -0.6 1.2 1.6 2.4 2.0 3.1 4.3 6.3 7.2 6.0 5.6 5.3 4.6 3.8 3.8 3.9
7.8 8.1 7.9 7.9 7.7 8.3 5.5 2.3 5.3 7.6 7.6 7.4 7.2 7.0 6.7 2.3 1.8 0.3 0.0 0.7 3.9 4.5 4.7 4.8 4.3 3.5 2.9 1.3 -0.7 0.4 1.4 2.4 2.9 4.2 5.6 6.3 7.0 5.5 6.6 6.9 7.1 6.9 6.6
7.3 7.1 7.3 7.7 7.6 7.5 2.5 1.3 0.6 6.8 7.2 6.8 6.6 6.5 6.2 4.8 1.5 3.4 -0.1 -1.9 -3.7 -3.8 -1.2 2.9 2.5 0.0 -0.5 0.3 1.5 1.5 1.5 1.4 1.9 3.0 4.8 5.5 7.1 5.2 5.8 6.9 7.3 7.6 7.0
7.3 7.2 7.2 7.1 7.4 7.4 2.0 1.2 -0.2 3.9 6.2 6.4 6.3 6.2 4.5 3.9 1.8 0.4 -3.2 -4.6 -4.4 -4.3 -3.3 -2.1 -1.8 -1.5 -0.8 0.1 1.0 1.3 1.2 1.4 2.2 3.4 5.8 5.5 5.1 4.0 4.8 6.4 7.1 7.6 7.6
7.3 7.3 7.6 7.2 7.1 7.0 1.6 0.3 -0.5 3.3 5.2 -0.6 -2.4 -2.5 -0.9 -1.3 -2.4 -2.7 -3.8 -3.9 -3.9 -3.7 -2.6 -1.3 -1.0 -0.2 0.5 0.5 1.1 1.6 3.0 4.1 5.6 5.0 5.7 5.5 5.7 4.8 4.5 4.7 7.4 8.1 7.4
7.1 7.1 5.9 -0.2 -2.6 1.1 -3.0 -1.7 -0.8 -1.0 -3.0 -4.4 -4.8 -4.8 -4.3 -4.0 -4.1 -3.5 -2.8 -2.1 -1.8 -1.7 -0.4 -0.5 -0.8 0.3 0.5 1.2 1.0 2.5 4.0 5.9 5.9 5.9 5.3 4.5 5.3 4.9 4.8 5.8 5.4 6.0 6.4
Wind_Speed
7 16 13 16 14 18 15 14 13 15 14 12 13 8 5 22 23 18 16 20 19 17 17 17 18 16 16 16 15 14 13 12 12 12 12 10 9 9 8 8 8 8 8
14 10 9 12 11 17 16 15 10 9 8 9 8 8 7 20 22 21 17 18 19 18 16 17 17 16 16 16 15 14 13 12 11 10 11 10 8 8 7 7 7 6 5
13 12 8 8 11 18 18 14 13 11 6 10 6 6 8 6 20 21 20 16 18 20 20 19 18 17 17 16 16 15 14 13 12 12 11 11 10 9 8 7 6 5 4
13 14 10 7 17 19 14 7 5 5 5 5 4 4 5 7 11 19 21 20 17 16 19 20 20 20 19 18 17 17 16 16 15 15 15 13 13 13 12 10 9 8 7
17 19 6 10 12 13 5 7 4 5 5 4 6 5 4 4 7 7 14 19 22 21 19 22 23 22 22 22 20 18 18 18 19 19 18 18 17 16 15 14 13 11 9
20 16 15 7 13 5 5 5 5 3 5 4 8 5 4 5 10 7 8 12 19 20 22 23 24 23 26 24 24 22 22 23 23 21 21 20 20 19 19 18 16 15 14
20 7 5 5 5 5 5 5 4 4 2 3 4 4 2 4 5 5 12 10 11 15 14 17 20 19 21 29 27 27 25 24 25 26 24 24 24 23 23 21 20 19 18
13 10 6 6 5 5 5 4 5 3 2 3 4 4 3 1 4 5 4 5 8 14 14 15 18 20 20 22 25 31 30 28 26 24 26 26 26 24 25 24 23 22 22
17 13 12 7 7 5 6 5 6 6 4 3 5 4 3 4 3 4 8 5 7 5 12 18 21 21 22 19 23 28 33 31 27 25 23 24 27 26 26 26 26 25 24
15 17 14 13 9 6 7 5 5 5 6 7 2 4 4 1 3 2 3 6 5 6 6 7 14 18 21 19 19 20 25 35 37 29 23 19 16 16 20 24 25 26 27
8 10 12 11 10 6 6 7 7 9 8 4 3 1 3 4 5 5 4 4 4 4 5 9 13 17 20 19 18 19 23 27 38 31 26 22 20 19 19 20 21 20 25
7 7 8 9 7 7 6 6 6 12 5 6 4 5 4 3 4 4 4 4 6 5 5 7 11 14 18 19 21 22 25 26 31 33 28 23 21 22 22 22 22 22 24
8 10 11 9 8 7 6 5 8 6 6 5 6 5 7 4 4 4 3 4 5 3 3 4 6 12 15 18 23 27 28 28 31 30 27 25 21 20 18 19 18 18 19
11 12 12 12 11 8 8 6 5 5 5 5 9 10 10 7 4 5 6 4 3 4 4 7 6 15 18 20 23 26 24 32 29 29 28 25 23 19 17 15 15 15 15
10 10 11 11 12 13 12 10 7 9 8 10 10 10 10 8 5 5 5 6 7 7 9 7 6 12 18 21 21 22 25 26 29 28 25 23 21 19 17 15 14 14 14
14 15 14 15 15 14 13 12 11 12 12 10 9 11 11 9 8 7 7 5 6 9 11 6 5 5 11 15 20 20 19 20 26 26 26 23 21 19 17 15 14 13 13
14 15 17 16 16 15 15 14 16 15 15 14 12 13 12 11 9 8 7 8 9 9 12 9 5 5 5 7 8 15 18 16 19 28 26 25 24 21 18 17 17 15 13
16 16 16 18 18 18 17 17 17 17 17 17 17 14 15 10 12 11 8 10 10 11 11 16 9 6 7 7 4 8 11 16 14 22 28 30 26 21 18 17 15 16 16
18 18 19 19 19 18 18 19 19 19 18 17 16 16 16 14 14 11 12 10 11 10 10 11 11 3 4 4 5 6 5 6 13 19 26 26 23 20 19 16 16 16 17
18 19 19 19 19 20 20 20 20 20 19 19 18 16 16 16 16 14 13 14 12 10 10 11 11 4 4 2 6 9 7 4 4 6 13 17 21 20 18 16 17 19 20
17 18 18 19 19 19 16 20 21 20 19 19 19 18 18 18 18 16 11 12 11 11 12 11 11 3 5 3 11 6 6 2 2 0 2 4 7 12 15 17 17 20 23
19 18 19 19 18 15 20 20 20 17 18 17 18 17 16 12 14 17 18 17 16 16 17 12 13 9 11 1 3 4 2 3 2 4 2 6 5 4 6 7 9 15 18
18 20 20 19 20 20 17 17 19 17 16 14 14 13 13 8 11 10 9 5 9 8 1 10 7 3 3 3 3 4 4 3 4 1 3 2 3 3 6 9 13 14 11
17 16 17 18 17 16 13 18 17 13 15 16 15 13 7 7 6 7 8 9 8 7 6 6 8 8 8 7 7 4 4 3 2 1 2 3 2 4 5 12 13 19 15
13 14 13 13 15 15 11 15 11 9 11 3 5 6 4 5 9 18 12 12 11 10 18 25 24 22 20 19 10 5 3 2 0 3 3 1 2 3 3 3 8 12 12
13 10 7 5 10 5 8 4 8 4 6 5 6 8 12 11 14 12 12 11 11 7 7 9 9 11 14 9 8 4 3 3 2 1 2 2 3 3 3 2 2 10 13
Wind_Direction
130 142 144 145 157 144 150 177 189 152 160 184 130 161 216 119 123 136 149 151 152 152 151 150 150 149 145 142 142 141 140 141 138 134 131 129 127 120 115 109 100 89 82
128 157 155 156 171 159 163 193 176 142 161 143 139 185 125 132 133 144 148 158 158 162 161 162 160 164 163 161 161 159 157 159 157 158 156 158 156 152 142 146 132 127 118
135 174 168 171 179 170 177 196 146 148 139 147 157 158 131 141 147 142 153 165 175 177 177 175 177 178 180 180 176 178 179 181 183 183 183 186 186 184 184 178 171 168 163
166 202 184 178 189 177 182 160 145 149 146 150 149 152 147 161 129 153 158 165 177 189 195 190 191 189 192 190 191 194 196 196 200 201 202 201 202 202 205 204 205 201 208
190 191 177 198 158 176 156 146 153 152 144 150 143 162 154 147 150 176 164 175 179 187 189 203 203 203 200 201 204 204 205 202 208 212 214 214 216 215 215 216 220 220 223
202 154 203 176 169 166 134 139 152 161 150 161 165 148 157 170 171 190 205 186 184 186 187 193 202 208 210 208 212 213 216 215 214 215 219 221 222 224 223 222 225 228 231
193 183 133 129 128 128 126 144 135 153 118 143 106 120 157 186 178 196 194 196 207 200 207 202 190 202 212 217 215 219 224 225 224 221 221 223 224 223 226 227 229 231 235
175 165 158 158 140 135 148 160 130 114 121 162 154 132 160 271 249 232 196 201 204 196 207 216 191 198 209 212 217 218 224 229 233 232 231 227 226 228 225 230 232 234 237
181 185 170 173 166 159 174 173 149 153 176 215 204 151 144 216 165 195 231 215 204 199 194 201 214 213 214 207 210 218 221 227 234 241 237 231 228 227 230 236 239 238 242
181 192 182 182 176 179 173 174 156 180 179 195 213 250 263 270 120 315 234 230 210 200 211 210 211 213 220 231 212 210 222 227 229 232 236 236 229 227 230 237 242 243 243
195 200 188 176 179 189 169 161 185 207 207 157 181 224 265 255 246 201 231 205 217 210 192 202 217 214 218 224 231 232 242 233 229 228 225 229 231 235 239 244 247 247 248
194 194 180 190 180 178 167 167 193 219 180 160 201 218 212 230 248 219 227 229 188 217 204 201 209 208 213 215 226 231 233 235 223 224 225 223 229 236 240 247 253 255 258
198 198 194 201 197 186 168 177 193 190 182 177 181 229 258 233 226 247 228 248 230 207 223 232 224 219 221 225 227 226 232 222 214 215 219 222 225 231 238 244 249 253 257
199 200 192 196 197 182 179 179 178 192 183 203 207 202 240 233 218 223 225 209 259 231 221 238 215 227 217 220 223 225 219 218 215 216 218 221 220 218 218 224 235 244 252
201 202 198 200 204 197 196 189 194 210 214 219 221 222 221 226 217 219 223 223 221 245 250 250 228 210 218 218 215 218 224 215 213 214 216 216 213 213 218 224 229 236 244
200 198 207 200 200 204 203 203 211 217 216 222 223 225 227 226 225 222 223 223 216 225 256 246 251 228 207 221 218 190 195 198 210 213 210 210 214 219 220 224 230 240 247
203 206 203 207 207 208 209 213 216 215 220 229 224 222 227 219 224 226 222 215 225 226 246 249 214 226 217 213 171 186 181 197 201 208 210 212 216 217 217 224 231 237 243
207 209 207 208 213 214 214 217 221 222 227 235 236 228 231 230 232 225 219 212 223 225 233 252 233 229 210 216 187 190 193 198 185 206 215 223 218 214 218 224 235 249 256
211 211 212 214 213 216 216 221 225 229 230 231 232 231 236 232 233 225 221 224 226 231 237 244 246 198 189 188 169 192 189 220 223 212 222 210 208 211 222 239 251 253 256
212 212 212 216 214 215 219 220 223 227 229 233 235 234 233 232 235 222 224 226 231 234 237 240 247 213 200 189 201 190 204 194 203 176 193 192 205 218 230 235 246 253 253
218 217 215 217 217 220 219 217 218 222 226 231 233 234 236 235 230 212 213 222 228 236 242 243 240 187 190 180 204 200 202 135 66 256 259 165 171 202 221 237 239 247 250
217 219 221 222 223 225 225 217 224 232 234 237 240 239 236 223 211 206 212 225 232 233 236 231 231 226 237 191 124 130 86 64 127 16 42 313 244 204 218 239 254 257 263
215 220 224 224 227 230 225 217 215 227 235 238 241 244 246 234 209 218 229 128 68 60 231 207 210 157 129 125 77 83 46 105 144 241 348 227 284 294 280 274 278 283 277
225 226 228 226 230 233 217 215 208 218 232 238 242 245 228 209 186 154 119 93 75 44 33 76 99 108 109 93 98 109 110 109 24 318 192 228 225 251 258 262 277 298 304
226 229 232 234 234 239 227 218 187 212 230 74 47 34 76 103 131 134 121 113 94 73 67 79 83 78 73 87 92 100 108 86 245 215 202 234 246 270 255 262 263 311 334
224 219 208 33 26 76 26 101 158 123 112 97 71 63 73 101 101 114 120 121 107 100 87 84 74 72 69 62 72 99 159 143 123 330 27 16 6 4 322 247 359 326 319